Вернуться в каталог

KUIPER-00647

АктивенСвязьLEO
NORAD 69790·PAYLOAD·🇺🇸 United States

Запущен Jul 2, 2026 с Cape Canaveral Space Force Station

Loading…

Ближайшие Пролёты (ближайшие 24 часа)

TLE

СвежийSource: CelesTrak SupGP

Эпоха: Sep 14, 2026, 21:11 UTC

1 69790C 26151AD  26257.88304398  .00001306  00000+0  12894-3 0  2574
2 69790  51.8939 248.9445 0010751  44.2312 274.0560 14.91437226    18

Отслеживайте KUIPER-00647 в реальном времени с AllMySat

Download on the App Store